| time (UTC) | temp F | wind direction | speed MPH | gust MPH | rain 1hr in | rain 24hr in | rain mn in | humidity % | barometer mb |
| 20260509123526 | 72 | 232 | 1.0 | 3.0 | 0.00 | 0.01 | 0.00 | 97 | 1009.9 |
| 20260509122527 | 72 | 233 | 1.0 | 3.0 | 0.00 | 0.01 | 0.00 | 97 | 1009.7 |
| 20260509121527 | 71 | 231 | 1.0 | 2.0 | 0.00 | 0.01 | 0.00 | 97 | 1009.8 |
| 20260509120526 | 71 | 250 | 0.0 | 4.0 | 0.00 | 0.01 | 0.00 | 97 | 1009.9 |
| 20260509115527 | 71 | 242 | 2.0 | 4.0 | 0.00 | 0.01 | 0.00 | 97 | 1009.9 |
| 20260509114528 | 71 | 230 | 0.0 | 1.0 | 0.00 | 0.01 | 0.00 | 97 | 1009.8 |
| 20260509113526 | 71 | 220 | 1.0 | 3.0 | 0.00 | 0.01 | 0.00 | 97 | 1009.8 |
| 20260509112527 | 71 | 294 | 0.0 | 3.0 | 0.00 | 0.01 | 0.00 | 97 | 1009.7 |
| 20260509111527 | 71 | 0.0 | 0.0 | 0.00 | 0.01 | 0.00 | 97 | 1009.4 | |
| 20260509110547 | 71 | 291 | 1.0 | 3.0 | 0.00 | 0.01 | 0.00 | 97 | 1009.1 |
| 20260509105527 | 71 | 231 | 0.0 | 2.0 | 0.00 | 0.01 | 0.00 | 96 | 1008.2 |
| 20260509104527 | 71 | 170 | 2.0 | 5.0 | 0.00 | 0.01 | 0.00 | 96 | 1008.1 |
| 20260509103519 | 71 | 192 | 3.0 | 7.0 | 0.00 | 0.01 | 0.00 | 96 | 1007.6 |
| 20260509102519 | 71 | 167 | 8.0 | 15.0 | 0.00 | 0.01 | 0.00 | 96 | 1007.4 |
| 20260509101519 | 70 | 171 | 5.0 | 11.0 | 0.00 | 0.01 | 0.00 | 96 | 1007.8 |
| 20260509100539 | 70 | 160 | 5.0 | 11.0 | 0.00 | 0.01 | 0.00 | 96 | 1007.7 |
| 20260509095519 | 70 | 155 | 5.0 | 11.0 | 0.00 | 0.01 | 0.00 | 96 | 1007.8 |
| 20260509094519 | 70 | 161 | 3.0 | 7.0 | 0.00 | 0.01 | 0.00 | 95 | 1008.3 |
| 20260509093542 | 70 | 164 | 3.0 | 7.0 | 0.00 | 0.01 | 0.00 | 95 | 1008.5 |
| 20260509092520 | 70 | 175 | 3.0 | 6.0 | 0.00 | 0.01 | 0.00 | 95 | 1008.5 |
| 20260509091520 | 70 | 160 | 2.0 | 5.0 | 0.00 | 0.01 | 0.00 | 94 | 1008.6 |
| 20260509090529 | 70 | 160 | 2.0 | 5.0 | 0.00 | 0.01 | 0.00 | 94 | 1008.8 |
| 20260509085529 | 70 | 168 | 1.0 | 2.0 | 0.00 | 0.01 | 0.00 | 94 | 1009.1 |
| 20260509084530 | 70 | 152 | 1.0 | 3.0 | 0.00 | 0.01 | 0.00 | 94 | 1009.3 |
| 20260509083529 | 70 | 170 | 0.0 | 2.0 | 0.00 | 0.01 | 0.00 | 94 | 1009.7 |
| 20260509082549 | 70 | 0.0 | 0.0 | 0.00 | 0.01 | 0.00 | 94 | 1009.9 | |
| 20260509081530 | 70 | 0.0 | 0.0 | 0.00 | 0.01 | 0.00 | 94 | 1010.0 | |
| 20260509080529 | 70 | 0.0 | 0.0 | 0.00 | 0.01 | 0.00 | 93 | 1010.2 | |
| 20260509075531 | 70 | 0.0 | 0.0 | 0.00 | 0.01 | 0.00 | 93 | 1010.0 | |
| 20260509074530 | 70 | 177 | 0.0 | 2.0 | 0.00 | 0.01 | 0.00 | 93 | 1009.8 |
| 20260509073530 | 71 | 173 | 1.0 | 4.0 | 0.00 | 0.01 | 0.00 | 93 | 1009.7 |
| 20260509072530 | 71 | 139 | 1.0 | 3.0 | 0.00 | 0.01 | 0.00 | 93 | 1009.7 |
| 20260509071532 | 71 | 161 | 1.0 | 3.0 | 0.00 | 0.01 | 0.00 | 92 | 1009.9 |
| 20260509070551 | 70 | 144 | 1.0 | 2.0 | 0.00 | 0.01 | 0.00 | 92 | 1010.0 |
| 20260509065552 | 70 | 153 | 0.0 | 2.0 | 0.00 | 0.01 | 0.00 | 92 | 1010.1 |
| 20260509064530 | 71 | 0.0 | 0.0 | 0.00 | 0.01 | 0.00 | 92 | 1010.3 | |
| 20260509063551 | 71 | 138 | 0.0 | 1.0 | 0.00 | 0.01 | 0.00 | 92 | 1010.2 |
| 20260509062531 | 71 | 133 | 0.0 | 1.0 | 0.00 | 0.01 | 0.00 | 92 | 1010.2 |
| 20260509061531 | 71 | 0.0 | 0.0 | 0.00 | 0.01 | 0.00 | 92 | 1010.4 | |
| 20260509060531 | 70 | 0.0 | 0.0 | 0.00 | 0.01 | 0.00 | 92 | 1010.4 | |
| 20260509055531 | 70 | 25 | 1.0 | 3.0 | 0.00 | 0.01 | 0.00 | 92 | 1010.5 |
| 20260509054537 | 70 | 35 | 1.0 | 3.0 | 0.00 | 0.01 | 0.00 | 92 | 1010.2 |
| 20260509053518 | 70 | 148 | 2.0 | 4.0 | 0.00 | 0.01 | 0.00 | 92 | 1009.7 |
| 20260509052543 | 70 | 166 | 4.0 | 6.0 | 0.00 | 0.01 | 0.00 | 92 | 1009.2 |
| 20260509051524 | 70 | 170 | 3.0 | 6.0 | 0.00 | 0.01 | 0.00 | 92 | 1010.2 |
| 20260509050533 | 71 | 0.0 | 0.0 | 0.00 | 0.01 | 0.00 | 92 | 1010.8 | |
| 20260509045532 | 71 | 0.0 | 0.0 | 0.00 | 0.01 | 0.01 | 92 | 1010.7 | |
| 20260509044532 | 71 | 0.0 | 0.0 | 0.00 | 0.01 | 0.01 | 92 | 1010.4 | |
| 20260509043517 | 71 | 0.0 | 0.0 | 0.00 | 0.01 | 0.01 | 92 | 1010.3 | |
| 20260509042518 | 71 | 0.0 | 0.0 | 0.00 | 0.01 | 0.01 | 91 | 1010.1 | |
| 20260509041538 | 71 | 0.0 | 0.0 | 0.00 | 0.01 | 0.01 | 91 | 1010.0 | |
| 20260509040533 | 71 | 0.0 | 0.0 | 0.00 | 0.01 | 0.01 | 91 | 1010.0 | |
| 20260509035518 | 71 | 0.0 | 0.0 | 0.00 | 0.01 | 0.01 | 91 | 1009.8 | |
| 20260509034518 | 71 | 0.0 | 0.0 | 0.00 | 0.01 | 0.01 | 91 | 1009.6 | |
| 20260509033519 | 71 | 0.0 | 0.0 | 0.00 | 0.01 | 0.01 | 91 | 1009.5 | |
| 20260509032519 | 71 | 0.0 | 0.0 | 0.00 | 0.01 | 0.01 | 90 | 1009.6 | |
| 20260509031519 | 71 | 0.0 | 0.0 | 0.00 | 0.01 | 0.01 | 90 | 1009.6 | |
| 20260509030539 | 71 | 135 | 0.0 | 1.0 | 0.00 | 0.01 | 0.01 | 90 | 1009.4 |
| 20260509025519 | 71 | 0.0 | 0.0 | 0.00 | 0.01 | 0.01 | 89 | 1009.5 | |
| 20260509024521 | 71 | 0.0 | 0.0 | 0.00 | 0.01 | 0.01 | 89 | 1009.4 | |
| 20260509023519 | 71 | 0.0 | 0.0 | 0.00 | 0.01 | 0.01 | 89 | 1009.1 | |
| 20260509022520 | 71 | 0.0 | 0.0 | 0.00 | 0.01 | 0.01 | 88 | 1009.0 | |
| 20260509021520 | 72 | 0.0 | 0.0 | 0.00 | 0.01 | 0.01 | 88 | 1008.9 | |
| 20260509020520 | 72 | 0.0 | 0.0 | 0.00 | 0.01 | 0.01 | 88 | 1008.6 | |
| 20260509015522 | 72 | 0.0 | 0.0 | 0.00 | 0.01 | 0.01 | 87 | 1008.5 | |
| 20260509014522 | 71 | 0.0 | 0.0 | 0.00 | 0.01 | 0.01 | 86 | 1008.4 | |
| 20260509013518 | 72 | 0.0 | 0.0 | 0.00 | 0.01 | 0.01 | 86 | 1008.3 | |
| 20260509012539 | 72 | 0.0 | 0.0 | 0.00 | 0.01 | 0.01 | 84 | 1008.2 | |
| 20260509011520 | 73 | 124 | 0.0 | 2.0 | 0.00 | 0.01 | 0.01 | 82 | 1008.0 |
| 20260509010518 | 74 | 0.0 | 0.0 | 0.00 | 0.01 | 0.01 | 80 | 1007.8 | |
| 20260509005519 | 75 | 0.0 | 0.0 | 0.00 | 0.01 | 0.01 | 79 | 1007.7 | |
| 20260509004519 | 75 | 133 | 1.0 | 2.0 | 0.00 | 0.01 | 0.01 | 78 | 1007.7 |
| 20260509003539 | 76 | 146 | 2.0 | 3.0 | 0.00 | 0.01 | 0.01 | 77 | 1007.7 |
| 20260509002521 | 76 | 157 | 1.0 | 2.0 | 0.00 | 0.01 | 0.01 | 76 | 1008.0 |
| 20260509001519 | 77 | 0.0 | 0.0 | 0.00 | 0.01 | 0.01 | 75 | 1008.1 | |
| 20260509000516 | 77 | 162 | 2.0 | 4.0 | 0.00 | 0.01 | 0.01 | 74 | 1008.1 |
| 20260508235520 | 77 | 164 | 2.0 | 5.0 | 0.00 | 0.01 | 0.01 | 73 | 1008.1 |
| 20260508234521 | 78 | 176 | 1.0 | 3.0 | 0.00 | 0.01 | 0.01 | 73 | 1008.2 |
| 20260508233520 | 78 | 171 | 3.0 | 6.0 | 0.00 | 0.01 | 0.01 | 72 | 1008.2 |
| 20260508232541 | 80 | 190 | 2.0 | 5.0 | 0.00 | 0.01 | 0.01 | 71 | 1008.1 |
| 20260508231517 | 81 | 160 | 3.0 | 7.0 | 0.00 | 0.01 | 0.01 | 68 | 1008.1 |
| 20260508230519 | 82 | 186 | 2.0 | 6.0 | 0.01 | 0.01 | 0.01 | 66 | 1008.1 |
| 20260508225522 | 80 | 218 | 0.0 | 3.0 | 0.01 | 0.01 | 0.01 | 69 | 1008.2 |
| 20260508224521 | 78 | 167 | 2.0 | 6.0 | 0.01 | 0.01 | 0.01 | 72 | 1007.9 |
| 20260508223518 | 77 | 173 | 3.0 | 7.0 | 0.01 | 0.01 | 0.01 | 73 | 1007.8 |
| 20260508222518 | 74 | 178 | 3.0 | 8.0 | 0.01 | 0.01 | 0.01 | 79 | 1007.4 |
| 20260508221519 | 74 | 147 | 8.0 | 13.0 | 0.01 | 0.01 | 0.01 | 79 | 1007.2 |
| 20260508220519 | 75 | 160 | 4.0 | 8.0 | 0.00 | 0.00 | 0.00 | 78 | 1007.9 |
| 20260508215519 | 76 | 156 | 4.0 | 7.0 | 0.00 | 0.00 | 0.00 | 75 | 1009.2 |
| 20260508214519 | 76 | 326 | 1.0 | 4.0 | 0.00 | 0.00 | 0.00 | 73 | 1009.8 |
| 20260508213519 | 76 | 245 | 1.0 | 3.0 | 0.00 | 0.00 | 0.00 | 71 | 1009.1 |
| 20260508212519 | 77 | 156 | 1.0 | 4.0 | 0.00 | 0.00 | 0.00 | 72 | 1009.1 |
| 20260508211539 | 77 | 157 | 2.0 | 5.0 | 0.00 | 0.01 | 0.00 | 71 | 1009.3 |
| 20260508210538 | 78 | 196 | 3.0 | 7.0 | 0.00 | 0.01 | 0.00 | 69 | 1009.6 |
| 20260508205521 | 79 | 182 | 3.0 | 6.0 | 0.00 | 0.01 | 0.00 | 68 | 1009.3 |
| 20260508204520 | 80 | 180 | 2.0 | 5.0 | 0.00 | 0.01 | 0.00 | 66 | 1009.3 |
| 20260508203520 | 81 | 177 | 3.0 | 7.0 | 0.00 | 0.01 | 0.00 | 64 | 1009.2 |
| 20260508202520 | 82 | 178 | 2.0 | 6.0 | 0.00 | 0.01 | 0.00 | 62 | 1009.1 |
| 20260508201520 | 82 | 199 | 2.0 | 6.0 | 0.00 | 0.01 | 0.00 | 62 | 1009.3 |
| 20260508200517 | 81 | 218 | 2.0 | 5.0 | 0.00 | 0.01 | 0.00 | 63 | 1009.3 |
| 20260508195520 | 80 | 202 | 3.0 | 8.0 | 0.00 | 0.01 | 0.00 | 64 | 1009.5 |
| 20260508194521 | 80 | 186 | 3.0 | 6.0 | 0.00 | 0.01 | 0.00 | 65 | 1009.7 |
| 20260508193520 | 81 | 187 | 4.0 | 7.0 | 0.00 | 0.01 | 0.00 | 64 | 1009.9 |
| 20260508192518 | 80 | 197 | 3.0 | 5.0 | 0.00 | 0.01 | 0.00 | 64 | 1009.9 |
| 20260508191520 | 79 | 182 | 2.0 | 6.0 | 0.00 | 0.01 | 0.00 | 67 | 1010.1 |
| 20260508190519 | 79 | 96 | 2.0 | 5.0 | 0.00 | 0.01 | 0.00 | 66 | 1010.5 |
| 20260508185519 | 79 | 198 | 3.0 | 6.0 | 0.00 | 0.01 | 0.00 | 65 | 1010.6 |
| 20260508184519 | 79 | 158 | 3.0 | 8.0 | 0.00 | 0.01 | 0.00 | 65 | 1010.6 |
| 20260508183520 | 78 | 165 | 4.0 | 7.0 | 0.00 | 0.01 | 0.00 | 66 | 1010.6 |
| 20260508182518 | 78 | 174 | 3.0 | 6.0 | 0.00 | 0.01 | 0.00 | 65 | 1010.9 |
| 20260508181519 | 78 | 139 | 2.0 | 5.0 | 0.00 | 0.01 | 0.00 | 64 | 1011.1 |
| 20260508180519 | 77 | 176 | 3.0 | 6.0 | 0.00 | 0.01 | 0.00 | 64 | 1011.2 |
| 20260508175520 | 77 | 135 | 3.0 | 8.0 | 0.00 | 0.01 | 0.00 | 65 | 1011.4 |
| 20260508174519 | 76 | 146 | 3.0 | 7.0 | 0.00 | 0.01 | 0.00 | 66 | 1011.5 |
| 20260508173519 | 76 | 160 | 4.0 | 9.0 | 0.00 | 0.01 | 0.00 | 66 | 1011.8 |
| 20260508172520 | 75 | 159 | 3.0 | 9.0 | 0.00 | 0.01 | 0.00 | 67 | 1012.0 |
| 20260508171520 | 75 | 186 | 3.0 | 6.0 | 0.00 | 0.01 | 0.00 | 69 | 1012.3 |
| 20260508170517 | 75 | 177 | 3.0 | 8.0 | 0.00 | 0.01 | 0.00 | 71 | 1012.5 |
| 20260508165520 | 74 | 172 | 4.0 | 9.0 | 0.00 | 0.01 | 0.00 | 71 | 1012.6 |
| 20260508164520 | 73 | 168 | 4.0 | 10.0 | 0.00 | 0.01 | 0.00 | 73 | 1012.6 |
| 20260508163522 | 73 | 169 | 4.0 | 10.0 | 0.00 | 0.01 | 0.00 | 74 | 1012.8 |
| 20260508162518 | 72 | 176 | 5.0 | 9.0 | 0.00 | 0.01 | 0.00 | 75 | 1013.0 |
| 20260508161518 | 71 | 173 | 4.0 | 9.0 | 0.00 | 0.01 | 0.00 | 76 | 1013.2 |
| 20260508160519 | 70 | 173 | 5.0 | 9.0 | 0.00 | 0.01 | 0.00 | 78 | 1013.2 |
| 20260508155521 | 70 | 159 | 4.0 | 9.0 | 0.00 | 0.01 | 0.00 | 79 | 1013.5 |
| 20260508154538 | 70 | 159 | 5.0 | 9.0 | 0.00 | 0.01 | 0.00 | 78 | 1013.7 |
| 20260508153519 | 70 | 145 | 4.0 | 10.0 | 0.00 | 0.01 | 0.00 | 78 | 1013.6 |
| 20260508152518 | 70 | 149 | 4.0 | 7.0 | 0.00 | 0.01 | 0.00 | 79 | 1013.8 |
| 20260508151520 | 70 | 167 | 4.0 | 8.0 | 0.00 | 0.01 | 0.00 | 78 | 1013.8 |
| 20260508150539 | 70 | 151 | 4.0 | 9.0 | 0.00 | 0.01 | 0.00 | 78 | 1013.9 |
| 20260508145519 | 70 | 132 | 3.0 | 7.0 | 0.00 | 0.01 | 0.00 | 77 | 1013.9 |
| 20260508144539 | 70 | 123 | 2.0 | 5.0 | 0.00 | 0.01 | 0.00 | 77 | 1013.9 |
| 20260508143519 | 70 | 135 | 2.0 | 4.0 | 0.00 | 0.01 | 0.00 | 76 | 1013.9 |
| 20260508142542 | 71 | 142 | 3.0 | 5.0 | 0.00 | 0.01 | 0.00 | 75 | 1014.0 |
| 20260508141517 | 69 | 126 | 1.0 | 4.0 | 0.00 | 0.01 | 0.00 | 78 | 1014.0 |
| 20260508140519 | 68 | 81 | 1.0 | 3.0 | 0.00 | 0.01 | 0.00 | 79 | 1014.0 |
| 20260508135520 | 66 | 107 | 2.0 | 4.0 | 0.00 | 0.01 | 0.00 | 84 | 1014.2 |
| 20260508134519 | 65 | 51 | 1.0 | 4.0 | 0.00 | 0.01 | 0.00 | 86 | 1014.1 |
| 20260508133520 | 64 | 136 | 1.0 | 4.0 | 0.00 | 0.01 | 0.00 | 90 | 1014.1 |
| 20260508132518 | 63 | 62 | 2.0 | 5.0 | 0.00 | 0.01 | 0.00 | 91 | 1014.0 |
| 20260508131519 | 63 | 59 | 2.0 | 5.0 | 0.00 | 0.01 | 0.00 | 96 | 1014.1 |
| 20260508130521 | 62 | 52 | 2.0 | 6.0 | 0.00 | 0.01 | 0.00 | 99 | 1014.4 |
| 20260508125521 | 60 | 51 | 4.0 | 5.0 | 0.00 | 0.01 | 0.00 | 99 | 1014.6 |
| 20260508124519 | 59 | 37 | 2.0 | 4.0 | 0.00 | 0.01 | 0.00 | 99 | 1014.4 |